This demonstration page uses our WeatherBlox Daily Observations layout. Learn more.

Left ArrowRight Arrow

31.31129, -92.44514

Hourly Observations for August 14, 2016

Temp ( °F °C ) Dew Point ( °F °C ) Humidity (%) Winds ( mph kmh ) Pressure ( in mb ) Visibility ( mi km ) Precip ( " mm )
12:01 am 00:01 Cloudy with Light Rain 75 23.9 75 23.9 100 100 S 6 9 29.83 1010 8 13 0.00 0.03
12:25 am 00:25 Cloudy 75 23.9 75 23.9 100 100 S 7 11 29.83 1010 10 16 0.00 0.03
12:36 am 00:36 Cloudy 75 23.9 75 23.9 100 100 S 8 13 29.83 1010 9 14 0.00 0.03
12:53 am 00:53 Cloudy with Light Rain 75 23.9 74 23.3 96 96 S 7 11 29.85 1011 9 14 0.00 0.03
1:03 am 01:03 Cloudy with Light Rain 75 23.9 74 23.3 96 96 S 7 11 29.83 1010 9 14 0.00 0.03
1:35 am 01:35 Cloudy 75 23.9 74 23.3 96 96 S 8 13 29.83 1010 8 13 0.01 0.25
1:53 am 01:53 Cloudy 75 23.9 74 23.3 96 96 SSE 8 13 29.84 1010 7 11 0.01 0.25
2:12 am 02:12 Cloudy 75 23.9 74 23.3 96 96 S 10 17 29.83 1010 7 11 0.00 0.00
2:28 am 02:28 Cloudy with Light Rain 74 23.3 74 23.3 100 100 S 14 22 29.83 1010 8 13 0.00 0.03
2:53 am 02:53 Cloudy 74 23.3 74 23.3 100 100 S 12 19 29.83 1010 10 16 0.00 0.03
3:32 am 03:32 Cloudy with Light Rain 74 23.3 74 23.3 100 100 SSE 12 19 29.83 1010 3 4 0.00 0.03
3:43 am 03:43 Cloudy with Light Rain 74 23.3 74 23.3 100 100 SSE 9 15 29.83 1010 3 5 0.00 0.03
3:53 am 03:53 Cloudy with Light Rain 74 23.3 74 23.3 100 100 SSE 9 15 29.84 1010 4 6 0.00 0.03
4:53 am 04:53 Cloudy with Mist and Fog 73 22.8 73 22.8 100 100 SSE 10 17 29.85 1011 5 8 0.00 0.03
5:53 am 05:53 Cloudy with Light Rain 73 22.8 73 22.8 100 100 SSE 10 17 29.87 1011 3 5 0.00 0.03
6:20 am 06:20 Cloudy 73 22.8 73 22.8 100 100 SSE 8 13 29.88 1012 10 16 0.00 0.03
6:33 am 06:33 Cloudy 74 23.3 73 22.8 97 97 SSE 8 13 29.88 1012 9 14 0.00 0.03
6:53 am 06:53 Cloudy 74 23.3 73 22.8 97 97 SSE 8 13 29.89 1012 8 13 0.00 0.03
7:21 am 07:21 Cloudy 74 23.3 73 22.8 97 97 SSE 7 11 29.88 1012 7 11 0.00 0.00
7:36 am 07:36 Cloudy 74 23.3 74 23.3 100 100 SSW 3 6 29.91 1013 7 11 0.00 0.00
7:53 am 07:53 Cloudy 74 23.3 74 23.3 100 100 S 6 9 29.91 1013 7 11 0.00 0.03
8:28 am 08:28 Cloudy with Rain 73 22.8 73 22.8 100 100 S 9 15 29.91 1013 2 3 0.03 0.76
8:47 am 08:47 Cloudy with Light Rain 73 23 73 23 100 100 S 8 13 29.94 1014 2 3 0.07 1.78
8:53 am 08:53 Cloudy with Light Rain 73 22.8 73 22.8 100 100 S 8 13 29.93 1014 3 4 0.07 1.78
8:58 am 08:58 Cloudy with Light Rain 73 22.8 73 22.8 100 100 S 9 15 29.94 1014 4 6 0.00 0.03
9:14 am 09:14 Cloudy 74 23.3 73 22.8 97 97 S 7 11 29.94 1014 10 16 0.00 0.03
9:30 am 09:30 Cloudy 74 23.3 73 22.8 97 97 S 6 9 29.94 1014 10 16 0.00 0.03
9:53 am 09:53 Cloudy with Light Rain 74 23.3 73 22.8 97 97 SSE 7 11 29.95 1014 3 4 0.02 0.51
9:57 am 09:57 Cloudy with Light Rain 74 23.3 74 23.3 100 100 SSE 8 13 29.94 1014 3 5 0.00 0.03
10:10 am 10:10 Cloudy with Light Rain 74 23.3 73 22.8 97 97 S 8 13 29.94 1014 3 5 0.01 0.25
10:53 am 10:53 Cloudy with Light Rain 75 23.9 74 23.3 96 96 S 8 13 29.97 1015 3 5 0.07 1.78
11:00 am 11:00 Cloudy with Rain 75 23.9 74 23.3 96 96 S 8 13 29.97 1015 3 5 0.02 0.51
11:22 am 11:22 Cloudy with Light Rain 75 23.9 74 23.3 96 96 S 9 15 29.97 1015 8 13 0.03 0.76
11:53 am 11:53 Cloudy 76 24.4 74 23.3 94 94 S 5 7 29.97 1015 10 16 0.03 0.76
12:00 pm 12:00 Mostly Sunny 77 25 75 23.9 94 94 S 6 9 29.97 1015 10 16 0.00 0.00
12:53 pm 12:53 Partly Cloudy 80 26.7 76 24.4 87 87 SSW 6 9 29.96 1015 10 16 0.00 0.03
1:34 pm 13:34 Cloudy with Heavy Rain 80 26.7 75 23.9 85 85 VRB 5 7 29.94 1014 2 2 0.13 3.30
1:45 pm 13:45 Cloudy with Heavy Rain 78 25.6 76 24.4 93 93 SW 12 19 29.94 1014 1 1 0.29 7.37
1:53 pm 13:53 Cloudy with Heavy Rain 76 24.4 75 23.9 97 97 SSW 15 24 29.96 1015 1 1 0.51 12.95
2:11 pm 14:11 Cloudy with Rain 73 22.8 72 22.2 96 96 SW 9 15 29.97 1015 1 2 0.21 5.33
2:32 pm 14:32 Cloudy with Light Rain 74 23.3 72 22.2 94 94 SW 12 19 29.94 1014 3 5 0.32 8.13
2:53 pm 14:53 Cloudy with Rain 74 23.3 73 22.8 97 97 S 8 13 29.96 1014 2 3 0.35 8.89
2:58 pm 14:58 Cloudy with Light Rain 74 23.3 73 22.8 97 97 S 9 15 29.94 1014 3 5 0.00 0.03
3:53 pm 15:53 Cloudy 77 25 74 23.3 90 90 S 7 11 29.94 1014 10 16 0.01 0.25
4:53 pm 16:53 Partly Cloudy 80 26.7 74 23.3 82 82 S 9 15 29.93 1014 10 16 0.00 0.00
5:53 pm 17:53 Mostly Sunny 79 26.1 73 22.8 82 82 SSW 6 9 29.93 1013 10 16 0.00 0.00
6:53 pm 18:53 Sunny 78 25.6 73 22.8 85 85 Calm 29.93 1013 10 16 0.00 0.00
7:53 pm 19:53 Sunny 77 25 74 23.3 90 90 SSE 3 6 29.94 1014 10 16 0.00 0.00
8:53 pm 20:53 Mostly Clear 76 24.4 75 23.9 97 97 Calm 29.96 1015 10 16 0.00 0.00
9:53 pm 21:53 Clear 76 24.4 74 23.3 94 94 SSE 3 6 29.98 1015 10 16 0.00 0.00
10:53 pm 22:53 Mostly Clear 75 23.9 74 23.3 96 96 SE 5 7 30.00 1016 10 16 0.00 0.00
11:53 pm 23:53 Mostly Cloudy 74 23.3 74 23.3 100 100 SE 3 6 30.00 1016 10 16 0.00 0.00

Powered by AerisWeather